Location: Unspecified
(0.0000°N, 0.0000°E)
Time: 19:00:06
(UTC+00:00)

Vanguard 2 Rocket - Pass Details

Date: 18 January 2020
Orbit: 554 x 3327 km, 32.9° (Epoch: 20 February)

Event Time Altitude Azimuth Distance (km) Brightness Sun altitude
Rises 01:06:36 0° 212° (SSW) 3,516 - -65.1°
Reaches altitude 10° 01:10:33 10° 190° (S) 2,200 - -64.6°
Maximum altitude 01:13:19 15° 154° (SSE) 1,694 - -64.2°
Drops below altitude 10° 01:15:44 10° 118° (ESE) 1,879 - -63.8°
Sets 01:18:39 0° 92° (E) 2,711 - -63.4°
